Precipitable_Water
1.44 1.46 1.45 1.46 1.49 1.49 1.50 1.53 1.59 1.62 1.67 1.70 1.68 1.71 1.70 1.76 1.79 1.75 1.77 1.78 1.77 1.79 1.81 1.82 1.79 1.76 1.76 1.76 1.77 1.75 1.71 1.67 1.64 1.61 1.58 1.57 1.55 1.53 1.52 1.52 1.54 1.57
1.39 1.42 1.44 1.45 1.47 1.49 1.49 1.53 1.57 1.57 1.61 1.67 1.70 1.74 1.77 1.76 1.78 1.76 1.75 1.75 1.76 1.79 1.85 1.86 1.83 1.79 1.79 1.75 1.72 1.67 1.66 1.64 1.58 1.61 1.52 1.53 1.55 1.54 1.54 1.56 1.55 1.62
1.39 1.38 1.39 1.39 1.40 1.42 1.44 1.50 1.52 1.54 1.56 1.61 1.68 1.72 1.74 1.76 1.76 1.76 1.76 1.74 1.73 1.77 1.81 1.85 1.84 1.81 1.81 1.80 1.79 1.72 1.66 1.64 1.59 1.62 1.55 1.52 1.55 1.53 1.55 1.55 1.57 1.60
1.36 1.36 1.37 1.39 1.42 1.41 1.44 1.45 1.48 1.50 1.54 1.56 1.58 1.66 1.70 1.74 1.75 1.74 1.74 1.74 1.72 1.72 1.75 1.76 1.78 1.80 1.81 1.83 1.83 1.80 1.75 1.68 1.65 1.64 1.59 1.56 1.53 1.53 1.54 1.55 1.55 1.59
1.30 1.33 1.36 1.40 1.44 1.46 1.46 1.41 1.42 1.47 1.50 1.53 1.58 1.62 1.65 1.68 1.70 1.71 1.71 1.73 1.73 1.71 1.71 1.69 1.69 1.70 1.75 1.75 1.76 1.73 1.75 1.69 1.67 1.66 1.59 1.53 1.56 1.54 1.54 1.53 1.52 1.52
1.27 1.31 1.33 1.35 1.39 1.43 1.43 1.41 1.42 1.45 1.48 1.49 1.51 1.59 1.61 1.66 1.67 1.68 1.70 1.70 1.74 1.72 1.71 1.70 1.66 1.65 1.66 1.67 1.67 1.65 1.70 1.69 1.69 1.67 1.59 1.53 1.55 1.61 1.59 1.58 1.55 1.52
1.17 1.20 1.23 1.30 1.32 1.36 1.37 1.40 1.42 1.44 1.46 1.49 1.53 1.54 1.60 1.59 1.61 1.66 1.69 1.71 1.73 1.75 1.73 1.71 1.68 1.64 1.65 1.63 1.61 1.59 1.62 1.67 1.70 1.67 1.58 1.56 1.57 1.57 1.61 1.59 1.57 1.53
1.21 1.19 1.19 1.24 1.28 1.30 1.30 1.32 1.33 1.35 1.39 1.43 1.43 1.53 1.59 1.58 1.60 1.65 1.69 1.71 1.71 1.74 1.78 1.76 1.72 1.68 1.65 1.61 1.56 1.54 1.54 1.60 1.64 1.66 1.64 1.61 1.60 1.54 1.58 1.59 1.56 1.52
1.37 1.31 1.24 1.21 1.22 1.26 1.25 1.27 1.28 1.30 1.33 1.33 1.38 1.48 1.59 1.61 1.63 1.66 1.68 1.70 1.69 1.72 1.76 1.77 1.76 1.72 1.70 1.62 1.56 1.53 1.51 1.54 1.59 1.62 1.64 1.63 1.61 1.59 1.57 1.59 1.55 1.54
1.53 1.50 1.43 1.34 1.26 1.26 1.25 1.28 1.30 1.29 1.30 1.29 1.34 1.44 1.50 1.59 1.63 1.66 1.69 1.69 1.67 1.67 1.71 1.73 1.74 1.73 1.71 1.67 1.61 1.56 1.52 1.51 1.55 1.58 1.61 1.64 1.63 1.60 1.58 1.57 1.54 1.54
1.64 1.68 1.63 1.56 1.49 1.43 1.36 1.35 1.34 1.32 1.32 1.29 1.33 1.37 1.44 1.49 1.54 1.60 1.62 1.65 1.64 1.65 1.66 1.68 1.71 1.72 1.69 1.66 1.63 1.60 1.56 1.53 1.53 1.55 1.57 1.59 1.61 1.60 1.58 1.56 1.54 1.52
1.78 1.79 1.77 1.71 1.66 1.60 1.52 1.45 1.42 1.40 1.36 1.34 1.35 1.36 1.40 1.43 1.44 1.47 1.49 1.53 1.60 1.65 1.67 1.69 1.72 1.71 1.67 1.65 1.64 1.61 1.57 1.54 1.54 1.55 1.55 1.55 1.57 1.57 1.57 1.57 1.53 1.53
2.00 1.95 1.96 1.93 1.86 1.78 1.71 1.61 1.52 1.49 1.44 1.40 1.40 1.39 1.38 1.38 1.41 1.40 1.43 1.45 1.52 1.60 1.63 1.67 1.69 1.71 1.69 1.67 1.64 1.62 1.57 1.53 1.52 1.53 1.52 1.53 1.53 1.53 1.53 1.53 1.52 1.50
2.12 2.11 2.07 2.08 2.05 1.98 1.90 1.82 1.69 1.58 1.51 1.47 1.45 1.41 1.40 1.39 1.39 1.39 1.42 1.43 1.48 1.55 1.61 1.65 1.66 1.67 1.68 1.68 1.65 1.63 1.59 1.55 1.52 1.50 1.50 1.49 1.50 1.52 1.52 1.51 1.51 1.51
2.15 2.15 2.16 2.20 2.15 2.16 2.04 1.94 1.83 1.70 1.61 1.51 1.44 1.42 1.44 1.45 1.45 1.43 1.39 1.39 1.45 1.52 1.56 1.60 1.59 1.61 1.64 1.65 1.62 1.60 1.59 1.55 1.53 1.51 1.48 1.47 1.46 1.47 1.49 1.50 1.50 1.50
2.13 2.14 2.13 2.15 2.17 2.19 2.13 2.04 1.93 1.84 1.74 1.61 1.49 1.45 1.46 1.49 1.48 1.45 1.41 1.39 1.41 1.47 1.52 1.54 1.55 1.57 1.59 1.59 1.59 1.58 1.58 1.55 1.54 1.52 1.50 1.47 1.44 1.43 1.44 1.45 1.46 1.46
2.09 2.09 2.14 2.13 2.17 2.15 2.12 2.02 1.98 1.98 1.91 1.79 1.66 1.58 1.57 1.58 1.56 1.48 1.43 1.44 1.44 1.46 1.48 1.50 1.53 1.54 1.53 1.53 1.53 1.54 1.54 1.54 1.53 1.52 1.52 1.49 1.46 1.44 1.40 1.41 1.44 1.46
2.09 2.10 2.10 2.13 2.14 2.13 2.12 2.08 2.07 2.06 2.02 1.97 1.86 1.74 1.70 1.70 1.66 1.59 1.53 1.50 1.51 1.52 1.52 1.53 1.55 1.56 1.54 1.51 1.50 1.50 1.51 1.52 1.53 1.52 1.53 1.52 1.52 1.48 1.46 1.44 1.43 1.44
2.14 2.12 2.10 2.11 2.13 2.16 2.15 2.13 2.11 2.07 2.02 2.01 1.97 1.97 1.90 1.77 1.74 1.70 1.63 1.61 1.60 1.59 1.60 1.64 1.61 1.60 1.57 1.53 1.49 1.47 1.46 1.48 1.49 1.52 1.52 1.52 1.53 1.53 1.52 1.50 1.48 1.45
2.09 2.08 2.06 2.12 2.15 2.17 2.17 2.14 2.13 2.08 2.05 2.05 2.05 2.05 1.97 1.88 1.87 1.85 1.79 1.72 1.71 1.72 1.74 1.72 1.62 1.63 1.63 1.61 1.55 1.49 1.46 1.45 1.46 1.48 1.49 1.51 1.53 1.54 1.54 1.53 1.52 1.49
1.96 1.97 1.97 2.03 2.08 2.13 2.13 2.14 2.12 2.09 2.05 2.04 2.03 2.01 1.97 1.95 1.92 1.88 1.87 1.86 1.87 1.91 1.90 1.80 1.71 1.71 1.72 1.72 1.70 1.65 1.58 1.52 1.50 1.48 1.46 1.46 1.49 1.51 1.52 1.53 1.53 1.52
1.87 1.88 1.96 1.96 1.96 1.98 2.03 2.03 2.06 2.04 2.00 2.03 2.04 2.03 2.03 2.02 2.00 1.97 1.93 1.92 1.98 2.03 2.02 1.96 1.94 1.92 1.91 1.90 1.88 1.85 1.80 1.74 1.66 1.59 1.55 1.53 1.52 1.51 1.51 1.54 1.55 1.54
1.78 1.79 1.81 1.91 1.91 1.90 1.93 1.96 1.98 2.02 2.07 2.10 2.03 2.01 1.99 1.99 1.98 1.99 2.02 2.00 2.01 2.05 2.04 2.04 2.05 2.06 2.03 1.99 1.96 1.96 1.96 1.92 1.86 1.79 1.73 1.67 1.62 1.62 1.61 1.61 1.61 1.61
1.73 1.73 1.77 1.83 1.80 1.82 1.85 1.87 1.92 1.98 2.00 2.07 2.01 1.98 1.95 1.97 2.01 2.04 2.05 2.02 1.98 1.98 2.02 1.99 2.02 2.03 2.02 2.02 2.01 2.02 2.02 2.00 1.99 1.95 1.90 1.85 1.81 1.79 1.77 1.75 1.73 1.69
1.64 1.65 1.67 1.69 1.70 1.75 1.75 1.76 1.79 1.83 1.88 1.93 1.95 1.97 1.96 1.99 2.00 2.00 2.00 2.00 2.00 2.01 2.03 2.01 1.99 1.95 1.94 1.93 1.95 2.00 2.05 2.06 2.04 2.00 1.95 1.95 1.94 1.93 1.94 1.90 1.88 1.86
1.60 1.57 1.58 1.59 1.61 1.65 1.68 1.69 1.71 1.71 1.72 1.74 1.78 1.83 1.85 1.87 1.88 1.90 1.89 1.92 1.98 2.00 2.01 2.00 1.96 1.94 1.93 1.92 1.91 1.95 2.03 2.08 2.07 1.99 1.92 1.92 1.96 1.98 1.97 2.00 2.00 1.98
Wind_Speed
13 12 12 11 10 10 9 8 8 8 7 7 7 6 6 5 5 5 5 5 5 4 4 4 4 4 4 4 4 4 4 4 4 4 4 5 5 5 5 5 5 5
14 13 12 12 11 11 10 9 9 9 8 8 7 7 6 6 6 6 5 5 5 5 5 5 5 5 5 5 4 4 5 4 4 4 4 5 5 5 5 5 5 5
14 14 13 13 12 12 11 10 10 9 9 8 8 8 7 7 6 6 6 6 6 5 5 5 5 5 5 5 5 5 5 5 5 5 5 5 5 5 6 6 6 5
15 15 14 14 13 12 12 11 11 10 10 10 9 9 8 8 7 7 7 6 6 6 6 5 5 5 5 5 5 5 5 5 5 5 5 5 5 6 6 6 6 6
17 16 16 15 14 13 12 12 12 11 11 11 10 10 9 9 8 8 8 7 7 7 6 6 6 6 6 5 5 5 5 5 6 6 6 6 6 6 6 6 6 6
17 17 17 16 15 14 13 13 12 12 12 12 11 11 10 10 10 9 9 8 8 8 7 7 6 6 6 6 6 5 5 5 6 6 6 6 6 6 6 6 6 7
17 17 17 17 16 16 15 14 13 13 13 13 12 12 12 11 11 10 10 10 9 9 8 8 7 7 7 7 7 6 6 6 6 6 6 6 6 6 6 7 7 7
17 17 17 18 18 17 16 16 15 14 14 13 13 13 13 12 12 11 11 11 11 10 10 9 8 8 8 7 7 7 7 7 7 7 7 7 7 7 7 7 7 7
17 17 17 18 18 18 18 17 16 16 15 14 14 14 14 13 13 12 12 12 12 11 11 10 10 9 8 8 8 8 8 8 7 7 7 7 7 7 7 7 7 7
17 17 17 17 18 18 18 18 18 17 16 16 15 15 15 14 14 13 13 13 12 12 12 12 11 10 10 9 9 9 9 9 8 8 8 8 8 8 8 8 8 8
18 18 18 18 18 18 18 19 18 18 18 17 16 16 15 15 15 15 14 14 14 13 13 13 13 12 11 11 10 10 10 9 9 9 9 9 9 9 8 8 8 8
20 19 19 19 18 18 18 19 19 19 19 18 18 17 16 16 16 16 16 15 15 15 14 14 14 13 13 12 12 11 11 11 10 10 10 10 10 10 10 9 9 9
21 20 20 19 19 19 19 19 19 19 19 19 19 18 17 17 17 17 17 16 16 16 15 15 15 14 14 13 13 13 12 12 12 11 11 11 11 11 11 11 11 10
22 22 21 21 20 20 20 19 19 19 19 19 19 19 18 17 17 17 17 17 17 16 16 15 15 15 15 14 14 14 13 13 13 13 12 12 12 12 12 12 12 12
22 23 23 23 22 22 22 21 20 20 20 20 20 20 19 18 17 17 16 17 17 17 16 16 16 16 15 15 15 15 14 14 14 14 14 14 13 13 13 13 13 13
23 23 24 24 24 24 24 23 22 21 20 20 20 20 20 19 18 18 17 17 17 17 17 17 16 16 16 16 16 16 15 15 15 15 15 15 15 15 14 14 14 14
23 23 23 24 24 25 26 25 24 22 21 21 20 20 20 20 19 19 18 17 17 17 17 17 17 17 17 17 17 17 17 16 16 16 16 16 16 16 15 15 15 14
21 21 21 22 22 23 25 26 25 23 22 22 21 20 20 19 19 19 18 18 17 17 17 17 17 17 17 17 17 18 18 18 17 17 16 16 16 16 16 16 16 15
20 20 20 20 21 21 22 24 25 24 23 22 21 20 20 19 19 19 18 18 18 18 17 17 17 17 17 17 17 18 18 18 18 18 18 17 17 17 17 17 17 17
16 17 17 17 18 18 19 21 23 23 23 22 21 20 20 20 19 19 18 18 18 18 18 18 17 17 17 17 17 17 18 19 19 19 19 18 18 18 18 18 18 18
13 13 13 13 14 15 16 17 19 21 22 21 20 20 20 20 19 19 19 19 18 18 18 18 18 18 18 17 17 17 18 18 18 19 19 19 19 19 19 19 19 19
12 12 12 13 13 14 14 15 16 18 19 19 19 19 19 19 19 19 18 18 18 18 19 19 19 19 18 18 18 18 18 18 18 18 18 19 19 19 19 19 19 19
11 11 11 11 11 12 12 13 14 15 16 17 17 17 17 18 18 18 18 18 18 18 18 18 19 19 19 19 19 19 19 19 18 18 18 18 19 19 19 20 20 20
11 11 10 10 10 9 9 10 11 12 14 14 15 15 16 16 16 17 17 17 18 18 18 18 19 18 19 19 20 20 20 20 20 19 19 19 19 19 19 20 20 20
13 12 11 12 11 10 9 10 11 11 12 13 13 13 14 14 15 16 16 16 17 17 17 18 19 18 19 19 20 20 21 21 21 21 21 21 20 20 20 20 20 20
14 13 13 13 13 12 11 11 11 12 12 12 12 12 13 13 14 14 14 14 15 15 16 17 17 18 18 18 19 19 20 20 21 22 22 22 22 21 21 21 21 21
Wind_Direction
211 210 210 211 211 212 213 212 212 211 209 206 206 204 201 202 203 203 206 208 207 206 205 207 208 210 210 208 207 206 206 207 208 211 212 211 210 209 209 211 212 212
214 214 213 214 215 216 218 218 217 215 214 212 212 211 209 209 209 209 211 212 212 212 210 211 213 215 217 216 215 214 213 213 213 213 215 215 216 215 216 219 221 221
217 217 216 216 217 218 221 222 221 220 219 218 217 216 215 215 214 213 214 215 216 217 216 216 216 217 219 220 220 221 221 220 219 218 219 219 220 220 221 223 226 229
219 220 219 219 219 219 221 222 223 223 224 224 222 221 219 219 218 217 216 217 219 220 220 220 219 219 221 222 225 227 228 228 226 224 224 223 223 225 226 227 230 234
221 222 222 222 222 222 222 223 224 224 226 228 228 227 224 222 222 221 220 220 221 222 222 222 221 223 225 226 228 231 232 230 228 228 227 226 226 227 228 231 235 239
223 224 224 225 225 225 225 225 226 226 228 230 231 231 229 226 226 225 224 223 224 225 225 224 224 226 229 231 232 234 234 232 230 230 230 229 230 230 231 235 240 244
225 225 226 227 227 228 229 228 228 228 229 231 232 233 231 229 228 228 227 226 227 227 228 227 227 228 232 235 237 237 237 237 236 236 235 234 235 235 236 238 242 247
226 226 227 228 228 230 230 231 231 231 231 232 233 233 232 231 230 229 230 230 229 229 229 229 230 230 233 236 238 239 239 239 239 240 240 240 240 240 239 241 244 247
227 227 228 228 229 231 231 232 234 233 233 232 232 232 232 233 232 232 232 232 231 231 230 232 233 234 236 238 240 241 240 240 241 242 243 244 243 243 242 243 246 248
230 230 230 229 230 231 232 233 234 235 235 233 232 232 233 233 234 234 233 233 233 232 232 234 235 236 238 241 243 244 243 243 243 244 246 246 247 247 246 246 248 249
233 234 234 233 232 232 233 233 234 235 234 234 233 233 234 234 235 235 235 235 235 235 235 236 237 238 239 241 244 246 247 246 245 246 248 249 249 249 249 249 250 251
235 236 236 236 235 234 234 234 234 234 233 233 233 234 235 236 236 237 237 236 236 237 237 238 239 240 240 242 243 246 248 249 248 248 249 250 251 251 251 251 252 253
236 237 237 237 237 236 236 236 235 235 234 232 232 234 235 236 237 238 238 238 237 238 239 239 240 241 242 243 244 245 247 248 249 250 251 251 252 253 253 253 254 255
237 238 238 238 239 238 237 236 235 235 235 234 233 233 235 236 237 238 238 238 237 237 239 240 241 242 244 245 246 246 247 248 249 251 252 253 254 255 255 255 256 258
239 240 240 240 241 240 238 235 235 235 235 235 234 233 234 236 237 238 238 237 237 238 239 240 241 243 245 246 248 249 250 250 250 251 253 254 256 257 257 258 258 259
241 243 243 243 242 241 238 235 234 235 235 235 234 233 234 235 236 237 238 238 239 239 240 241 242 244 245 246 248 250 251 252 252 253 254 255 257 258 259 260 260 261
243 244 245 245 244 242 238 234 233 234 233 234 233 233 233 234 236 237 237 238 239 241 242 243 244 245 246 247 247 248 249 251 252 254 255 256 257 259 260 261 261 262
243 243 243 243 244 242 237 232 231 232 231 231 232 233 233 234 235 236 237 238 240 241 242 243 244 247 249 248 248 248 248 250 251 252 254 256 257 258 260 262 263 264
241 242 242 242 242 239 234 230 229 229 229 230 231 232 233 233 234 235 236 238 239 241 243 244 245 249 251 250 250 249 248 249 251 252 253 255 257 258 260 261 262 264
237 238 238 239 237 235 232 229 227 226 227 229 231 232 232 233 234 236 237 238 240 242 244 245 247 250 251 251 252 251 250 250 252 252 254 255 257 258 259 261 262 263
230 230 230 230 231 230 228 225 224 223 225 228 230 231 233 234 235 237 238 239 242 244 245 246 247 249 250 251 252 252 252 252 253 253 254 255 257 258 259 261 262 263
229 230 230 230 230 229 226 223 222 221 223 226 229 230 232 234 235 237 238 239 242 243 244 246 247 248 249 251 253 254 254 254 254 255 255 256 257 258 259 261 262 263
233 234 234 232 230 227 223 221 220 220 221 224 226 229 231 233 234 236 238 240 242 244 245 246 247 249 251 252 254 255 255 254 255 256 257 258 258 259 260 262 263 264
231 230 227 224 221 218 213 213 215 217 219 222 224 227 230 231 233 236 239 242 244 246 247 247 248 251 252 253 254 255 255 255 256 257 258 259 259 260 261 262 263 264
229 227 222 219 219 219 217 217 218 218 218 219 222 224 227 230 234 236 239 242 245 248 249 249 249 251 253 254 255 257 257 256 256 257 257 259 260 261 262 262 263 263
228 228 225 223 224 225 226 225 224 223 221 222 225 229 231 234 236 237 239 242 245 247 248 249 249 250 253 255 257 258 258 257 256 256 257 258 260 262 262 262 262 262